Theta_e
299 294 292 295 296 297 295 293 292 295 298 294 293 294 297 296 295 294 295 295 294 294 294 297 297 296 298 300 299 298 296 297 296 296 294 293 291 292 292 292 292 292 293 292
294 291 298 300 299 297 295 292 292 295 297 294 293 293 297 297 296 296 296 295 294 291 292 296 295 296 296 296 297 297 297 296 296 296 294 293 291 291 289 290 289 289 289 289
294 296 300 298 297 294 293 292 292 292 296 294 290 290 293 297 298 297 297 296 295 292 291 294 293 293 295 294 295 295 296 295 294 294 293 292 291 289 288 287 287 288 288 288
296 300 298 295 294 295 290 296 295 294 290 285 292 284 290 295 296 294 293 292 291 291 292 293 293 294 293 294 295 294 294 294 294 294 293 289 287 285 286 287 287 287 287 287
294 294 293 294 295 296 292 296 293 292 289 287 288 285 288 294 292 292 292 291 291 290 290 291 292 293 292 293 292 292 292 293 292 290 289 288 287 287 288 287 286 285 285 286
295 296 295 294 295 296 296 292 291 290 288 281 288 287 289 292 294 293 292 292 291 290 289 290 289 291 291 291 290 290 289 289 289 288 288 288 287 287 286 285 285 284 284 283
293 293 295 296 291 293 293 289 281 281 280 280 289 287 291 293 293 294 292 291 290 289 288 286 286 285 287 288 287 287 287 287 288 288 288 287 287 286 285 285 284 283 282 282
288 286 293 295 293 291 289 290 283 278 279 280 283 281 288 290 291 294 294 292 290 288 287 285 285 285 285 286 285 286 286 286 287 287 286 286 286 286 285 284 283 282 282 281
290 290 295 295 296 295 289 286 292 286 277 278 283 286 289 289 288 290 290 290 288 287 286 285 285 286 286 286 286 286 286 286 286 286 286 285 285 285 284 283 282 281 281 282
295 289 292 291 294 294 292 294 285 286 278 276 282 284 286 285 286 289 288 288 288 287 285 285 285 285 286 285 285 286 286 285 285 285 285 285 285 284 283 282 281 280 280 279
295 293 288 289 287 289 289 288 289 289 286 280 277 282 288 290 289 288 288 289 288 286 285 284 284 285 285 285 285 285 285 285 285 285 285 284 283 282 281 280 279 279 278 277
296 293 286 286 290 294 295 291 291 285 281 283 282 283 290 291 291 290 289 289 289 287 285 284 284 284 284 284 285 284 285 284 284 285 284 283 281 280 278 278 278 278 277 277
295 287 284 285 288 289 287 291 292 292 287 284 280 284 289 289 290 290 289 289 289 287 285 284 284 284 284 284 284 284 284 284 284 284 282 280 279 278 277 277 277 277 276 276
298 287 287 285 285 288 283 286 290 290 284 284 286 285 285 287 288 289 289 289 288 287 285 284 284 283 284 284 284 284 284 284 284 283 281 278 278 277 277 277 276 276 275 274
295 284 286 288 291 288 288 287 287 287 288 284 288 288 292 290 290 290 290 289 288 287 285 284 284 283 283 283 284 284 284 284 283 282 279 278 277 277 277 276 275 275 274 274
291 286 287 286 289 290 287 288 287 288 288 289 289 288 292 294 292 291 291 289 288 287 287 286 285 284 283 283 284 284 283 283 283 280 279 279 278 278 277 276 275 275 274 273
285 285 284 283 286 286 280 286 288 289 290 289 285 290 290 290 290 290 289 290 289 288 288 286 286 285 284 284 284 284 283 283 281 280 279 278 277 276 275 275 274 273 272 272
285 284 284 280 281 274 283 283 287 289 292 293 291 287 288 290 293 292 292 291 290 289 289 288 287 286 285 285 284 283 283 282 280 279 278 277 276 275 274 273 272 271 271 270
285 285 282 279 277 281 284 282 283 285 285 291 287 288 287 285 288 289 290 292 292 291 291 291 290 288 285 284 284 282 281 281 279 278 277 276 275 274 273 270 270 270 269 268
282 283 283 278 277 275 280 280 282 285 278 287 289 288 287 286 286 290 292 290 289 289 289 287 287 285 284 284 283 281 279 279 278 277 277 276 274 273 270 270 269 268 267 268
277 280 279 279 278 281 285 281 281 278 281 281 287 285 284 286 287 284 284 284 285 285 286 285 285 284 283 282 282 280 278 278 279 278 276 274 272 271 269 268 267 265 263 266
279 278 277 279 278 276 280 279 281 283 278 280 283 284 283 283 281 281 281 281 281 282 282 281 281 281 280 281 280 278 277 279 277 275 273 271 268 270 267 264 263 263 261 260
277 281 279 281 280 280 280 279 281 281 280 279 281 282 283 281 279 279 279 278 278 279 280 279 278 277 277 279 280 278 277 275 273 271 269 267 266 267 265 262 263 262 261 261
276 277 277 278 278 279 280 281 281 280 279 279 279 280 282 280 279 279 279 279 278 278 277 276 276 275 275 275 277 276 274 273 271 268 266 265 265 263 263 265 265 263 263 263
276 277 274 275 278 278 280 280 281 280 279 278 278 279 280 280 278 279 278 278 278 278 277 277 276 275 274 274 273 273 272 270 269 267 266 265 264 264 263 264 264 265 264 264
276 276 275 275 281 280 281 282 282 280 279 279 278 277 279 280 279 278 277 278 277 276 275 274 273 272 271 272 271 269 269 270 268 266 266 265 265 264 264 264 261 271 271 271
Wind_Speed
7 5 12 16 12 12 9 11 9 8 6 6 10 12 11 14 9 10 10 10 9 9 8 7 7 6 7 8 9 9 10 7 6 7 9 9 10 9 10 9 11 12 10 11
3 12 14 9 9 11 11 12 13 8 4 5 7 12 10 11 15 17 13 10 10 9 8 7 7 7 7 8 8 9 8 6 6 5 7 7 8 10 9 8 10 11 12 10
15 4 14 13 11 6 10 11 10 9 8 6 4 11 14 12 11 10 7 9 9 12 10 8 8 8 9 8 8 8 8 9 9 11 10 11 10 7 8 8 8 9 11 11
14 13 12 7 13 8 11 8 10 8 4 6 8 12 5 8 12 11 8 7 9 10 10 8 10 10 10 9 9 9 9 10 10 11 8 9 9 11 7 8 8 8 10 11
6 6 7 14 10 9 5 5 3 4 6 8 8 10 3 8 12 16 13 10 10 10 10 9 10 12 11 9 8 7 7 7 8 10 10 10 12 9 7 7 10 10 9 8
11 3 2 3 2 3 8 5 4 2 0 11 9 11 17 13 14 6 12 13 12 12 10 9 8 11 10 10 9 8 8 7 8 9 9 11 13 10 9 7 8 6 5 5
11 14 5 4 4 2 6 7 2 3 4 10 1 11 15 3 3 7 19 17 15 14 13 13 12 9 10 11 8 8 9 10 9 10 9 9 10 10 10 7 7 7 5 4
8 5 21 13 16 12 11 10 7 6 6 5 1 10 7 3 6 6 16 17 16 15 13 14 12 11 10 11 9 10 10 12 10 10 10 8 9 7 7 7 7 6 5 5
6 8 4 11 9 12 7 10 2 4 0 2 7 7 3 4 2 8 14 17 18 17 16 15 14 12 11 11 10 11 11 11 10 9 9 8 8 9 9 8 8 6 6 6
1 5 4 3 4 5 4 8 3 3 6 7 7 11 10 7 10 9 16 18 18 17 17 15 14 14 11 9 8 10 10 11 10 10 8 8 8 9 9 8 8 8 6 6
2 3 2 4 7 12 6 7 6 7 5 5 3 8 5 11 16 20 17 17 18 18 17 16 14 13 11 10 11 11 11 12 11 9 8 9 8 9 9 8 7 7 6 6
8 4 7 8 3 8 15 11 15 6 7 7 3 10 4 5 10 14 17 17 17 17 16 15 15 14 13 13 12 11 11 10 9 10 10 9 9 9 8 7 7 7 7 6
8 5 3 2 3 1 7 16 22 17 4 15 6 10 2 4 8 9 14 16 17 18 17 17 16 16 15 14 13 12 11 10 10 10 11 9 8 8 7 7 6 6 6 6
13 6 8 12 1 4 6 11 19 19 11 11 19 7 4 5 7 9 12 16 17 18 19 17 16 15 15 15 14 14 13 12 12 12 11 9 8 9 7 7 6 6 6 6
13 9 9 18 15 5 4 6 14 20 27 14 25 19 14 11 13 16 12 15 17 18 19 20 19 17 16 16 15 15 14 13 12 12 11 10 8 9 8 7 6 6 6 5
2 6 10 18 18 18 16 13 12 22 26 25 25 25 2 5 6 11 14 17 18 20 21 20 18 17 18 18 18 15 15 15 13 13 12 11 11 10 9 7 7 6 5 4
5 3 4 12 5 8 6 25 21 18 17 20 23 31 4 5 6 7 8 14 18 19 21 21 21 19 18 18 17 17 15 15 13 13 12 12 11 10 9 8 6 6 5 5
8 6 2 1 3 6 5 3 12 23 24 21 17 2 2 4 8 8 11 14 13 14 15 15 15 15 16 16 16 14 16 16 14 13 12 12 11 10 9 8 6 5 5 5
2 4 4 5 5 7 5 6 8 9 12 14 7 7 4 4 3 4 7 6 10 12 13 16 17 16 16 17 15 16 15 15 14 14 13 12 11 11 10 8 7 5 5 4
1 4 5 4 5 7 4 4 4 3 6 8 10 13 12 8 4 15 5 9 7 7 7 8 9 10 14 16 16 18 17 16 15 15 14 12 11 11 10 8 7 4 3 4
5 4 11 6 5 4 5 6 1 4 7 3 7 6 7 9 5 2 7 5 5 4 7 8 12 14 15 14 17 16 16 17 14 13 12 11 10 9 8 7 4 4 4 4
10 8 5 4 5 8 6 5 9 4 3 2 2 3 6 5 6 5 6 7 7 7 7 7 10 9 9 13 15 13 14 12 12 13 12 10 9 7 7 8 5 4 4 4
3 5 5 8 5 2 4 0 2 1 2 3 4 3 6 6 5 7 6 7 6 7 7 5 9 9 7 10 12 13 10 13 13 12 11 10 9 7 8 7 6 4 5 3
3 2 1 3 1 3 3 4 4 1 2 1 3 3 6 5 7 6 7 7 7 6 7 5 9 9 7 6 7 9 13 12 13 12 10 9 10 7 6 6 6 4 5 5
3 6 5 3 5 4 7 8 6 3 2 1 3 2 4 7 4 6 5 6 6 6 6 8 9 9 9 8 8 10 12 13 12 10 10 9 7 9 7 6 6 5 4 6
5 7 5 6 6 4 4 4 8 8 8 5 3 1 1 5 8 5 5 7 7 8 6 6 6 7 8 9 9 9 11 13 13 11 9 9 8 7 6 6 3 12 12 13
Wind_Direction
201 205 211 219 211 244 287 302 286 290 133 161 224 238 238 194 209 211 211 176 171 154 130 127 110 112 107 105 106 105 107 102 110 106 105 94 93 85 79 72 65 62 63 61
99 233 240 234 238 228 238 254 264 275 184 165 254 263 265 191 205 205 201 178 165 128 141 143 125 124 110 114 115 112 111 124 109 106 99 98 104 89 83 76 67 62 60 58
215 191 214 224 237 221 250 239 251 244 285 202 283 262 244 252 209 203 197 174 160 150 148 152 140 131 122 120 122 122 119 112 103 104 108 106 103 89 84 72 73 61 62 60
238 234 252 217 232 180 249 228 242 263 285 252 175 284 229 252 227 178 173 166 140 145 141 156 144 139 133 134 132 127 128 126 124 132 124 105 108 105 100 97 89 75 67 62
218 188 222 218 212 191 221 52 359 196 246 286 248 281 249 203 233 212 186 167 158 147 144 157 148 135 127 124 117 111 103 95 97 97 102 109 107 108 112 109 102 88 68 65
262 132 287 225 143 246 122 84 67 32 246 254 187 216 274 226 216 188 166 167 162 147 146 145 124 134 132 126 125 125 115 100 97 104 104 112 116 117 110 98 93 88 80 61
234 228 167 153 105 33 157 132 224 262 207 248 111 220 246 285 158 174 168 166 160 154 154 144 147 143 142 136 129 127 122 113 109 109 106 104 104 105 106 106 104 99 89 68
206 250 198 174 204 191 189 182 173 223 210 269 42 241 249 34 39 125 155 156 152 159 154 153 157 154 147 142 147 138 130 120 111 105 102 99 95 97 93 95 99 94 89 86
202 248 86 155 194 192 179 222 223 67 43 311 225 262 305 143 102 129 150 160 163 163 159 161 158 158 152 152 148 137 128 123 120 115 109 106 104 105 109 102 93 89 91 89
8 308 21 73 91 279 218 155 134 150 212 231 258 238 233 215 191 175 172 173 170 164 160 164 162 156 156 150 134 130 132 132 128 123 121 117 112 102 98 93 96 100 98 96
174 191 110 80 207 179 157 199 191 167 212 200 287 258 337 196 182 184 181 178 175 172 165 166 162 158 157 149 149 147 140 138 136 129 123 115 112 108 105 105 108 113 110 99
193 208 233 211 358 229 216 206 203 181 209 228 183 257 9 44 168 171 173 175 172 173 168 166 165 161 160 158 154 152 145 143 139 134 126 119 114 113 112 116 119 118 106 93
153 198 213 252 327 218 210 217 210 233 45 229 167 260 8 38 128 164 169 175 173 171 170 170 171 171 168 165 160 156 151 151 144 137 130 126 125 122 122 124 122 109 105 94
156 176 202 235 135 119 194 208 215 210 223 227 227 238 223 186 173 170 172 173 174 177 177 176 178 176 173 169 164 159 159 157 148 140 138 136 139 136 136 127 118 110 106 104
180 217 205 243 251 150 219 216 222 219 232 214 247 240 240 196 188 195 171 165 171 181 184 185 183 180 175 173 170 166 163 155 150 146 145 147 140 133 129 125 126 123 115 124
227 232 194 247 245 249 242 227 224 230 235 241 255 260 57 256 154 152 173 172 182 186 189 189 185 182 181 178 177 169 162 158 150 152 150 143 141 135 132 133 135 129 141 148
172 199 188 247 222 226 256 228 223 225 230 227 235 246 136 122 138 174 181 183 191 191 192 189 191 188 183 182 175 173 159 150 150 151 151 151 146 142 144 145 145 151 157 188
167 188 202 308 97 231 241 183 222 228 236 231 241 220 139 192 180 138 180 190 193 195 193 192 187 184 182 174 175 158 154 155 156 155 153 149 148 148 148 148 158 147 187 189
204 188 191 198 210 327 277 215 186 176 256 228 194 147 123 84 67 244 192 178 196 192 191 194 192 181 168 169 165 152 153 153 155 159 162 157 157 156 156 156 151 188 188 170
256 294 223 157 204 212 246 275 282 88 293 224 166 167 170 145 213 241 185 180 193 180 171 164 152 152 156 164 157 156 159 162 168 169 165 159 158 161 162 153 162 185 185 174
157 194 227 219 222 256 227 180 307 125 249 274 195 159 145 186 218 104 111 96 107 108 137 138 150 160 159 150 155 163 166 175 171 156 152 151 157 161 150 135 149 167 177 123
172 171 189 199 223 243 146 72 169 211 281 289 57 119 151 131 124 117 117 118 119 118 100 105 115 126 134 146 155 162 173 162 157 147 145 148 146 149 139 147 161 171 146 148
231 191 184 184 209 228 231 181 281 255 265 240 128 149 155 142 150 142 142 141 137 134 125 106 122 119 125 150 165 167 160 145 143 143 148 145 141 143 149 161 172 170 163 160
250 178 159 55 307 232 240 242 250 247 266 262 88 141 148 145 148 148 145 146 142 141 144 126 128 146 157 157 150 153 151 148 148 147 147 147 154 148 158 174 184 171 172 183
178 140 155 267 250 268 246 225 231 222 246 263 95 119 168 142 157 154 152 153 148 150 146 155 163 168 171 154 147 148 148 148 149 146 152 158 161 170 175 195 188 188 202 186
185 167 168 217 210 178 232 214 183 182 214 208 161 108 157 166 167 144 164 165 162 164 155 164 170 150 158 162 158 155 157 160 153 155 165 172 169 175 176 180 213 224 212 221